Temp_Advection
nan nan nan nan nan nan nan nan nan nan nan nan nan nan nan nan nan nan nan nan nan nan nan nan nan nan nan nan nan nan nan nan nan nan nan nan nan nan nan nan nan nan nan
nan -1 -1 -1 -1 -1 -0 -1 -1 -1 -1 -0 -0 -1 -0 -0 -0 -0 -0 -0 -1 -1 -2 -2 -2 -1 -1 -2 -5 -4 -3 -2 -2 -1 -0 -0 -0 0 -0 1 2 2 nan
nan -0 -1 -1 -0 -0 -1 -0 -0 -0 -1 -0 -0 -0 -1 -1 -1 -0 -0 -0 -1 -1 -1 -1 -1 -1 -2 -3 -4 -5 -3 -2 -2 -1 -1 -1 -0 0 1 1 0 0 nan
nan -0 -0 -0 -0 -0 -0 -0 -0 -0 -0 -0 -0 0 -0 -0 -1 -1 -0 -0 -1 -1 -0 -1 -1 -1 -1 -2 -3 -5 -5 -3 -3 -1 0 1 0 1 1 0 0 -0 nan
nan -0 -0 -0 -0 -1 -0 -0 -0 0 -0 -0 -0 -0 -0 -0 -0 -1 -0 -1 -1 -1 -0 -0 -1 -1 -1 -0 -2 -3 -4 -5 -2 -0 1 0 1 1 1 -0 -0 0 nan
nan -0 -0 -0 -1 -1 -1 -1 -1 -1 -1 -1 -0 -0 -0 -1 -0 -1 -1 -1 -1 -1 -1 -1 -1 -1 -1 -1 -0 -1 -1 -3 1 1 0 0 0 1 -0 0 2 1 nan
nan -0 -1 -1 -1 -1 -1 -1 -1 -1 -1 -1 -0 -0 -0 -1 -1 -0 -1 -1 -1 -1 -1 -1 -1 -1 -2 -2 -1 -0 -1 -1 1 3 2 1 1 1 0 1 0 -0 nan
nan -1 -1 -1 -1 -1 -1 -1 -1 -1 -1 -0 -0 -0 -0 -0 -1 -0 -1 -0 -1 -1 -0 -0 -0 -1 -1 -2 -1 -0 -0 -0 -0 3 2 2 1 2 1 1 0 0 nan
nan -0 -1 -1 -0 -1 -0 -0 -0 -0 -0 -0 -0 -0 -0 -0 -0 -0 -0 -0 -0 -1 -1 -0 -0 -0 -0 -1 -2 -2 -0 -1 0 1 0 1 1 1 2 2 1 0 nan
nan -0 -0 -0 -0 -0 -0 -0 -0 -0 -0 -0 -0 -0 -0 -0 -0 -1 -1 -1 -1 -0 -2 -1 -0 -1 -1 -0 -1 -1 -2 -1 -0 -0 -0 -0 -0 0 1 0 1 1 nan
nan -0 -0 -0 -0 -0 -0 -0 -0 -0 -0 -0 -0 -0 -0 -0 -0 -0 -1 -1 -0 0 0 -1 -1 -0 -0 -0 -0 -0 -0 -0 -0 -1 -0 -0 -0 0 -0 -0 0 1 nan
nan -0 -0 -0 -0 0 -0 -0 0 -0 -0 -0 -0 -0 -0 -0 -0 -0 -0 -0 -0 0 1 0 -0 0 0 0 -0 -0 0 -0 -1 -1 -0 -0 -0 -0 -0 0 -0 0 nan
nan -0 -0 -0 -0 0 0 -0 -0 -0 -0 -0 -0 -0 -1 -0 -0 -0 -0 -0 -0 -0 0 1 0 0 0 -0 -1 -0 -1 -1 -1 -1 -1 -1 -1 -1 -0 -0 0 -0 nan
nan -0 -0 -0 -0 0 0 -0 -0 -0 -0 -1 -1 -1 -1 -1 -1 -1 -1 -1 -1 -1 -0 -0 0 0 -0 -0 -0 -0 -1 -0 -0 -1 -1 -0 0 -0 -1 -0 -0 -0 nan
nan -0 -0 -0 -0 -0 -0 0 -0 -0 -0 -0 -0 -0 -0 -1 -1 -1 -1 -0 -1 -1 -1 -1 -1 -1 -1 -2 -1 -1 -0 -0 -1 -0 -0 -0 -1 -1 -1 -1 -1 -0 nan
nan -1 -1 -0 -0 -1 -1 -0 -0 -0 -0 -0 0 -0 0 -0 -1 -0 0 0 -0 -0 -1 -1 -2 -2 -2 -2 -1 -1 -1 -1 -0 -0 -0 -0 -1 -1 -1 -1 -1 -1 nan
nan -1 -0 -0 -1 -0 -1 -1 -1 -1 -1 -0 -0 -0 -0 1 0 0 1 0 -0 -0 -1 -1 -1 -1 -1 -0 -0 -1 -0 -0 -0 -0 -0 -0 -0 0 -0 -1 -1 -1 nan
nan -0 -0 -0 -0 -0 -0 -0 -0 -1 -1 -1 -1 -0 -0 -0 0 -0 -1 -0 -1 -1 -1 -1 -1 -1 -1 -0 -0 -0 -0 -0 -0 -0 -0 -0 -0 -0 -0 -1 -0 -0 nan
nan -0 -0 -0 -0 -0 -0 -0 -0 -0 -1 -1 -2 -1 -1 -1 -0 -0 -1 -1 -1 -1 -1 -0 -0 -0 -0 -1 -0 -0 -1 -1 -1 -0 -0 -0 -0 -0 -0 -0 -0 -0 nan
nan -0 -0 -0 -0 -0 -0 -0 -0 -0 -0 -0 -1 -1 -1 -1 -1 -1 -1 -1 -1 -1 -1 -0 -0 -0 -0 -0 -0 -1 -1 -1 -1 -1 -0 -0 -0 -0 -0 0 0 -0 nan
nan -0 -0 -0 -0 -0 -0 -0 -0 -0 -0 -0 0 0 -0 -1 -1 -1 -1 -1 -1 -1 -1 -1 -0 -0 -0 -0 -0 -0 -0 -0 -0 -0 -0 -0 -0 -0 -0 -0 -0 -0 nan
nan -0 -0 -0 -0 -0 -0 -0 -0 -0 0 0 0 -0 -0 -0 -0 -0 -0 -0 -0 -0 -0 -0 -0 -0 -0 -0 -0 -1 -1 -1 -0 -0 -0 -0 -0 -0 -0 -0 -0 -0 nan
nan -0 -0 -0 -0 -0 -0 -0 -0 -0 0 0 -0 -0 -0 -0 -0 -0 -0 -0 -0 -0 -0 -0 -0 -0 -0 -0 -0 -0 -0 -1 -1 -0 -1 -1 -0 -0 0 0 0 0 nan
nan -0 -0 -0 -0 -0 -0 -0 -0 -0 -0 -0 -0 -0 -0 -0 -0 -0 -0 -0 -0 -0 -0 -0 -0 -0 -0 -0 -0 -0 -0 -0 -0 -0 -0 -0 -1 -0 -0 -0 -0 0 nan
nan -0 -0 -0 -0 -0 -0 -0 -0 -0 -0 -0 -0 -0 -0 -0 -0 -0 -0 -0 -0 -0 -0 -0 -0 -0 -0 -0 -0 -0 -0 -0 -0 -0 -0 -0 -0 -0 -0 -0 -0 -0 nan
nan nan nan nan nan nan nan nan nan nan nan nan nan nan nan nan nan nan nan nan nan nan nan nan nan nan nan nan nan nan nan nan nan nan nan nan nan nan nan nan nan nan nan
Wind_Speed
25 28 30 29 28 25 24 25 25 27 26 25 27 27 25 25 26 29 29 30 33 34 30 30 31 30 31 40 40 44 47 51 52 44 43 42 41 37 35 36 38 42 36
26 28 29 28 26 24 25 25 25 25 25 25 28 27 24 26 26 28 30 31 32 35 31 30 30 31 34 35 34 38 44 51 52 48 43 43 45 47 43 41 42 43 39
27 29 28 26 25 25 25 25 26 26 25 24 27 25 24 28 28 29 29 31 31 33 30 30 30 31 34 35 34 32 39 44 50 54 38 45 50 42 40 39 37 37 39
27 28 26 25 25 25 24 25 26 26 26 25 26 24 24 29 27 30 32 32 33 32 28 28 28 29 32 34 32 29 34 37 50 45 38 36 41 38 36 36 37 34 33
26 25 24 24 24 25 25 26 27 27 26 26 25 25 25 29 26 31 33 35 33 30 28 27 27 27 26 27 27 27 24 25 51 43 33 34 39 38 40 37 36 35 37
23 22 23 23 24 25 26 27 28 27 27 26 25 25 28 29 29 30 33 36 31 29 28 27 27 29 29 26 25 17 17 13 23 34 37 38 35 36 36 38 38 37 34
20 21 22 23 24 25 25 26 28 27 26 25 24 25 29 27 30 29 34 32 28 26 26 24 26 29 29 29 26 17 14 12 11 27 29 28 28 31 34 33 33 36 40
19 20 21 23 24 24 23 25 27 25 24 24 24 24 28 26 29 31 35 29 26 26 24 23 24 28 31 31 30 23 16 13 14 12 17 19 21 26 29 32 34 39 37
18 19 20 22 24 23 22 24 24 24 24 24 21 26 27 26 29 31 35 30 27 28 25 24 24 28 30 31 30 27 24 17 12 11 5 9 15 15 18 18 29 26 27
18 19 19 21 23 19 21 22 22 22 23 23 21 25 26 26 27 31 33 31 30 32 27 27 27 28 28 28 26 25 26 25 18 10 7 3 6 5 8 13 18 24 23
18 18 19 21 22 18 20 21 21 22 23 23 22 25 25 25 27 30 31 30 31 31 28 29 30 28 24 21 21 23 22 21 16 12 7 3 4 6 9 9 6 15 18
17 18 19 20 22 20 20 21 21 21 22 23 25 26 26 25 26 30 30 29 29 30 30 28 29 27 22 21 20 19 18 18 17 11 8 7 3 8 6 8 8 11 15
16 17 19 20 21 21 21 22 22 19 21 22 25 27 29 26 27 29 31 29 28 28 27 26 25 23 23 22 20 20 18 18 18 17 15 11 7 6 4 8 10 10 13
15 17 19 20 21 21 21 20 20 18 20 22 24 27 28 27 29 31 30 28 28 29 27 25 25 24 24 24 24 24 24 23 23 22 19 15 12 9 7 5 8 7 9
15 17 19 21 21 21 20 20 17 15 18 20 21 23 27 28 29 27 27 25 26 26 26 25 26 27 28 28 27 27 27 26 26 24 21 20 18 15 11 6 6 4 5
16 18 20 20 21 21 21 20 15 15 18 19 21 23 26 23 25 24 25 25 25 23 23 25 27 28 27 26 27 28 28 27 25 23 21 19 18 16 15 12 9 6 5
17 18 19 19 20 21 20 20 20 20 18 19 22 24 25 26 25 26 26 24 23 24 24 24 25 26 27 27 28 28 27 26 25 23 22 22 21 18 17 15 14 12 9
15 16 17 18 19 19 19 19 19 17 23 25 26 26 25 24 25 25 25 24 24 25 25 25 25 26 26 26 27 27 27 26 24 23 22 22 21 20 19 17 15 15 14
15 16 17 17 17 18 18 19 19 17 19 22 26 28 28 25 23 23 24 25 26 26 27 26 25 26 25 25 25 25 25 25 24 24 24 23 22 20 18 17 15 13 13
13 15 16 16 17 18 20 21 21 20 19 20 22 27 29 27 25 25 25 25 25 25 26 27 27 27 27 26 26 26 26 24 24 23 23 23 22 20 19 18 16 16 14
13 14 15 16 17 18 19 20 21 20 18 21 22 24 25 24 22 21 22 23 24 24 25 25 26 26 27 27 27 26 26 26 25 26 25 24 22 21 19 17 17 15 15
13 14 14 15 16 17 18 19 20 19 19 21 24 24 23 22 22 21 22 22 22 22 23 24 24 24 25 26 27 27 27 27 27 27 26 24 23 21 20 18 17 15 14
12 13 14 14 15 16 17 18 18 19 20 21 23 23 23 23 23 23 22 22 22 22 22 23 23 23 22 23 24 25 26 27 28 27 27 25 23 22 21 21 19 17 14
11 12 14 15 16 16 17 17 18 18 19 21 22 23 23 23 23 23 22 21 21 21 22 22 22 23 22 22 22 22 23 24 24 25 23 23 22 21 20 19 18 17 15
10 12 14 15 16 17 17 17 18 19 19 20 21 22 23 23 23 23 22 21 21 21 21 21 22 23 22 21 20 21 22 22 22 22 22 21 20 19 18 17 16 14 12
10 12 14 15 16 17 18 19 19 19 20 21 22 22 22 23 23 23 23 23 22 21 21 21 21 22 22 22 21 21 22 22 21 21 21 19 19 18 17 15 14 12 11
Wind_Direction
344 345 343 341 340 339 338 338 340 339 339 338 337 336 331 331 328 327 320 325 324 324 318 315 306 303 304 302 281 256 256 245 239 238 240 233 227 221 228 228 234 237 241
343 342 342 341 340 341 342 343 343 341 339 339 340 338 334 335 333 334 325 328 329 329 325 320 314 310 307 311 297 259 261 247 235 225 222 222 220 215 216 225 235 244 242
341 341 342 342 343 344 344 346 346 343 342 340 341 338 335 337 335 336 331 330 330 330 329 326 319 317 313 316 309 281 255 253 237 225 213 219 208 221 226 233 231 235 240
340 341 342 344 347 347 346 348 349 347 345 343 342 339 338 337 337 337 336 334 328 331 334 336 327 324 323 321 317 307 275 259 238 223 207 209 214 216 216 219 225 226 226
340 341 343 346 348 349 349 350 350 348 347 346 342 342 341 343 339 339 338 333 329 333 337 342 342 336 337 328 331 323 318 266 224 199 199 205 208 209 212 218 226 228 227
341 343 345 347 350 351 351 351 350 349 348 347 345 344 343 344 343 341 340 334 333 336 337 342 346 346 338 337 341 331 335 323 207 197 197 205 215 211 219 223 228 228 222
343 345 346 349 352 352 351 351 349 349 348 347 345 346 344 344 346 346 342 340 339 340 339 341 348 343 343 335 339 357 349 335 50 171 182 190 200 215 228 225 225 227 228
345 348 349 352 353 351 352 351 349 348 348 346 346 345 345 344 347 350 346 344 341 342 344 342 343 346 351 344 341 341 357 10 19 135 166 188 194 203 207 222 228 220 223
348 351 353 353 352 351 351 350 350 347 347 346 345 346 347 346 348 351 352 347 346 345 349 347 345 347 348 352 348 350 351 12 358 57 70 188 201 200 191 200 202 204 194
352 353 352 353 352 352 350 348 348 348 346 345 343 347 348 347 349 354 354 351 350 349 349 350 352 352 349 349 358 358 354 0 6 37 46 26 264 216 225 217 209 196 198
354 354 354 353 353 351 349 349 349 347 346 347 345 347 350 350 350 355 355 356 353 353 352 351 350 352 349 346 354 2 0 360 16 15 37 358 302 271 236 230 222 207 212
356 356 356 355 353 351 350 349 350 349 349 349 346 348 350 351 352 352 354 356 358 359 358 355 354 354 358 358 2 358 6 12 24 25 23 23 327 279 288 273 254 223 226
357 358 357 355 354 354 352 351 353 353 352 351 349 348 348 351 353 351 352 355 359 2 2 360 0 6 12 10 12 16 14 24 28 28 31 25 5 335 321 266 271 252 243
360 359 357 355 356 356 357 357 358 356 356 350 350 349 347 350 351 350 349 352 355 358 359 3 8 14 20 22 24 24 25 27 22 18 21 13 16 15 356 315 282 252 235
2 359 358 358 358 358 0 4 0 353 353 351 351 348 347 349 348 347 348 350 353 355 354 2 9 14 16 19 19 20 25 24 26 25 20 16 15 12 4 349 326 300 259
1 1 360 357 358 358 357 354 357 349 346 346 347 350 347 347 346 350 350 355 352 356 2 9 12 14 13 11 10 17 18 20 20 17 18 16 12 7 7 10 354 334 317
2 359 358 357 359 357 355 352 348 347 351 348 348 348 349 346 349 349 350 355 356 358 11 12 12 11 9 9 10 12 12 15 14 12 10 9 8 11 11 3 351 349 338
359 356 356 358 358 356 355 353 351 349 350 350 351 351 351 351 351 350 351 352 2 8 10 9 9 9 10 9 9 9 9 10 10 9 10 9 6 5 2 356 356 348 337
354 356 359 358 358 356 356 357 355 354 351 351 352 353 355 357 357 356 359 5 5 6 6 6 6 6 6 7 8 9 8 8 6 5 6 4 2 359 359 355 345 339 332
354 356 358 359 358 358 360 359 359 358 355 354 355 356 354 356 358 1 2 3 4 4 3 3 2 2 3 4 5 6 5 4 3 3 3 1 360 359 356 350 346 336 329
357 357 358 358 359 0 360 359 359 358 355 356 356 358 357 359 359 359 360 0 0 1 1 1 360 359 359 360 360 1 1 0 0 359 360 359 357 356 353 347 345 339 330
356 356 357 357 357 358 359 358 358 358 358 357 358 1 2 5 4 3 2 2 2 0 359 358 359 359 358 357 357 355 356 357 357 355 354 353 353 352 348 343 345 341 338
353 355 356 354 354 355 356 358 359 359 358 358 359 359 2 3 3 1 358 358 358 358 358 359 358 357 358 357 356 355 354 352 351 350 347 348 350 350 347 345 344 341 340
350 351 352 351 349 351 351 352 353 352 352 353 354 357 358 357 356 355 355 355 355 356 356 355 357 357 355 355 355 354 354 351 346 345 345 345 347 347 344 343 343 341 340
350 352 353 351 350 349 348 348 349 348 348 347 348 350 351 352 354 355 354 352 352 353 354 355 355 355 354 352 353 354 353 350 350 345 345 345 345 344 343 341 339 337 339
349 348 350 351 349 348 347 347 348 347 346 346 345 346 345 347 348 349 352 352 351 350 351 352 352 352 352 352 353 354 352 351 351 351 348 348 347 347 345 345 342 338 337
Height
1511 1507 1503 1499 1494 1490 1486 1480 1473 1467 1461 1456 1452 1447 1442 1437 1432 1426 1421 1414 1407 1399 1394 1388 1383 1380 1374 1368 1363 1361 1359 1361 1358 1362 1362 1364 1366 1371 1376 1379 1385 1389 1391
1508 1504 1499 1495 1492 1487 1481 1475 1469 1464 1458 1453 1448 1443 1438 1433 1427 1421 1414 1408 1401 1393 1387 1382 1375 1370 1364 1358 1350 1345 1344 1344 1346 1348 1349 1351 1354 1361 1366 1368 1373 1378 1381
1504 1500 1496 1493 1488 1483 1478 1471 1466 1461 1455 1450 1445 1441 1436 1429 1422 1416 1411 1404 1397 1390 1384 1377 1370 1364 1356 1348 1339 1332 1330 1331 1331 1337 1337 1340 1345 1351 1358 1362 1362 1370 1374
1500 1497 1494 1490 1484 1479 1474 1468 1463 1458 1452 1447 1443 1438 1433 1426 1419 1412 1406 1400 1393 1386 1379 1372 1366 1359 1351 1342 1332 1324 1318 1314 1316 1317 1325 1330 1335 1340 1346 1351 1355 1359 1364
1497 1495 1491 1486 1481 1476 1471 1466 1461 1455 1450 1445 1441 1436 1430 1423 1416 1409 1403 1396 1387 1379 1374 1367 1361 1355 1346 1339 1329 1321 1312 1307 1308 1304 1313 1322 1326 1329 1334 1341 1347 1353 1356
1495 1492 1488 1483 1478 1473 1468 1462 1458 1453 1448 1443 1438 1433 1427 1420 1414 1408 1401 1392 1383 1375 1368 1363 1357 1350 1342 1333 1328 1321 1312 1298 1295 1300 1308 1313 1317 1323 1328 1333 1340 1344 1348
1492 1489 1485 1480 1475 1470 1465 1460 1455 1450 1446 1441 1437 1431 1425 1418 1411 1405 1398 1388 1380 1373 1366 1360 1353 1347 1338 1330 1324 1315 1308 1309 1289 1289 1293 1303 1309 1315 1322 1326 1329 1334 1338
1489 1486 1483 1478 1473 1469 1464 1460 1455 1449 1444 1440 1435 1430 1423 1417 1409 1402 1394 1386 1378 1371 1364 1358 1352 1344 1336 1326 1319 1310 1315 1297 1293 1288 1289 1297 1300 1309 1314 1319 1321 1325 1332
1487 1484 1480 1476 1472 1467 1463 1459 1454 1449 1444 1439 1435 1429 1422 1415 1408 1401 1392 1384 1376 1369 1361 1356 1348 1340 1333 1326 1316 1308 1298 1295 1296 1280 1286 1292 1298 1303 1305 1310 1313 1315 1322
1485 1481 1478 1474 1470 1466 1462 1458 1453 1448 1444 1439 1434 1428 1422 1415 1408 1401 1393 1384 1376 1367 1360 1353 1347 1340 1332 1325 1320 1314 1303 1296 1289 1285 1288 1291 1301 1300 1305 1310 1309 1309 1315
1482 1479 1476 1473 1469 1465 1461 1457 1452 1448 1443 1438 1433 1428 1421 1415 1408 1402 1394 1386 1377 1368 1361 1352 1346 1342 1337 1331 1320 1314 1311 1303 1296 1292 1293 1296 1298 1302 1305 1302 1304 1304 1309
1480 1477 1474 1471 1467 1463 1460 1455 1451 1447 1442 1437 1432 1426 1420 1414 1408 1402 1394 1387 1379 1371 1363 1356 1348 1341 1336 1328 1320 1317 1312 1305 1300 1301 1298 1297 1299 1302 1297 1295 1302 1299 1305
1479 1476 1472 1469 1465 1461 1458 1453 1449 1445 1442 1437 1432 1426 1419 1413 1408 1401 1394 1386 1380 1373 1366 1359 1351 1343 1335 1328 1324 1319 1313 1311 1311 1307 1301 1305 1308 1302 1295 1298 1300 1302 1306
1477 1474 1471 1467 1464 1460 1456 1452 1448 1445 1442 1437 1432 1426 1419 1413 1407 1400 1393 1386 1380 1373 1367 1361 1353 1346 1339 1334 1328 1322 1315 1310 1307 1304 1304 1307 1303 1298 1297 1298 1304 1303 1306
1475 1472 1469 1466 1462 1458 1455 1451 1448 1446 1442 1437 1432 1427 1419 1412 1408 1402 1395 1387 1381 1375 1368 1361 1354 1347 1341 1336 1331 1324 1318 1313 1310 1307 1306 1303 1300 1301 1300 1301 1302 1300 1301
1473 1470 1467 1464 1460 1457 1453 1451 1449 1445 1441 1436 1432 1426 1419 1414 1407 1401 1394 1387 1381 1376 1369 1362 1356 1351 1347 1344 1337 1329 1324 1320 1317 1316 1312 1310 1308 1307 1302 1297 1299 1299 1297
1472 1469 1466 1463 1459 1456 1453 1449 1445 1441 1438 1434 1429 1424 1418 1411 1404 1398 1392 1387 1381 1376 1370 1365 1361 1355 1349 1342 1336 1332 1327 1323 1320 1318 1314 1310 1307 1304 1301 1300 1298 1295 1293
1471 1468 1465 1462 1459 1456 1452 1448 1444 1439 1434 1429 1425 1420 1415 1409 1403 1397 1391 1386 1381 1375 1370 1366 1362 1357 1351 1346 1341 1335 1329 1324 1322 1320 1315 1312 1309 1304 1302 1299 1295 1294 1294
1469 1467 1464 1461 1458 1455 1451 1447 1443 1439 1434 1429 1423 1418 1412 1407 1402 1397 1391 1385 1380 1375 1371 1367 1363 1359 1354 1349 1344 1339 1334 1329 1326 1321 1315 1312 1309 1307 1303 1300 1299 1298 1296
1468 1465 1462 1459 1456 1453 1449 1445 1441 1437 1433 1429 1423 1416 1410 1405 1400 1395 1390 1386 1381 1376 1372 1367 1362 1357 1353 1349 1344 1339 1336 1333 1330 1324 1319 1316 1311 1306 1302 1301 1298 1297 1295
1466 1463 1461 1458 1455 1451 1448 1444 1440 1436 1433 1428 1423 1418 1413 1407 1402 1397 1392 1387 1383 1378 1373 1368 1363 1358 1353 1349 1345 1341 1338 1334 1329 1323 1318 1314 1310 1306 1304 1302 1298 1295 1291
1464 1462 1459 1456 1453 1450 1446 1443 1439 1435 1432 1427 1422 1418 1413 1408 1403 1398 1394 1389 1384 1380 1375 1370 1365 1361 1356 1350 1345 1341 1337 1332 1327 1323 1318 1315 1311 1307 1304 1300 1295 1293 1289
1462 1460 1458 1455 1452 1449 1445 1442 1438 1434 1431 1427 1422 1417 1412 1408 1404 1399 1394 1390 1385 1380 1376 1371 1366 1362 1357 1352 1347 1342 1337 1331 1327 1322 1316 1312 1307 1303 1300 1296 1292 1291 1288
1460 1458 1456 1453 1450 1447 1444 1440 1437 1433 1430 1426 1422 1417 1412 1408 1403 1399 1394 1390 1385 1381 1376 1371 1367 1362 1357 1353 1348 1343 1338 1333 1327 1322 1317 1312 1306 1302 1298 1294 1291 1289 1286
1458 1456 1454 1451 1448 1445 1442 1439 1435 1432 1428 1424 1420 1416 1411 1407 1403 1398 1394 1389 1385 1380 1375 1371 1366 1362 1357 1352 1348 1343 1338 1333 1327 1322 1316 1312 1307 1304 1300 1296 1292 1289 1286
1456 1454 1452 1449 1446 1443 1440 1437 1433 1430 1426 1422 1418 1414 1409 1405 1401 1397 1392 1388 1383 1379 1375 1370 1365 1361 1356 1351 1346 1341 1337 1332 1327 1322 1317 1312 1307 1303 1299 1295 1292 1288 1285